sat.trackr.live / text

‹ back to catalog

STARLINK-34459

NORAD 64449 · 2025-130M

PAYLOAD ACTIVE UNKNOWN

§ Identity

Operator
Country
US
Launch date
2025-06-18
Launch site
AFETR
Launch vehicle
Mass (kg)
RCS (m²)

Purposes: comms

External: N2YO · Heavens-Above · Gunter

§ Orbital elements

Epoch: 2026-05-25T02:14:30.827040Z

Period
93.85 min
Inclination
53.1584°
Eccentricity
0.0002638
Mean motion
15.34396152 rev/d
Perigee alt
460.9 km
Apogee alt
464.5 km
Semi-major
6,840.9 km
B*
7.9141e-4
RAAN
93.4469°
Arg perigee
10.5816°
Mean anomaly
349.5242°
Rev number
5,240

§ Raw data

STARLINK-344591 64449U 25130M   26145.09341235  .00026455  00000+0  79141-3 0  99992 64449  53.1584  93.4469 0002638  10.5816 349.5242 15.34396152 52409

JSON: /api/v1/satellites/64449 · /tle

For live sub-satellite position, see the globe view (requires WebGL).

§ Visibility from observer

Set your observer location to see the next 7 days of passes ≥ 10°. The values pass through the URL so the page stays shareable.

No JS? Fill the form by hand. The geolocation button needs JavaScript.